Flag for Germany Weather past 2 weeks in Schleswig, Schleswig-Holstein, Germany

Now
44 °F

Light rain. Low clouds.


Feels Like: 39 °F
Forecast: 42 / 48 °F
Wind: 7 mph from South

Location: Schleswig

Current Time: Mar 28, 2015 at 8:45:51 PM

Latest Report: Mar 28, 2015 at 8:00 PM


Visibility: 2 mi

Pressure: 29.73 "Hg

Humidity: 93%

Dew point: 42 °F

Location of SchleswigLocation

Historic Weather in Schleswig — Graph

°F

Schleswig temperature yesterday

Maximum temperature yesterday: 47 °F (at 3:00 PM)
Minimum temperature yesterday: 38 °F (at 11:00 PM)
Average temperature yesterday: 42 °F

Past Weeks' High & Low Weather Summary

 TemperatureHumidityPressure
High55 °F (Mar 18, 1:00 PM)100% (Mar 20, 6:00 AM)30.55 "Hg (Mar 20, 6:00 AM)
Low28 °F (Mar 22, 6:00 AM)31% (Mar 19, 1:00 PM)29.67 "Hg (Mar 26, 5:00 AM)
Average41 °F81%30.16 "Hg
* Reported Mar 13 8:00 PM — Mar 28 8:00 PM, Schleswig, Weather by CustomWeather, © 2015

Note: Actual official high and low records may vary slightly from our data, if they occured in-between our weather recording intervals... More about our weather records

Advertising

Schleswig weather history for previous 24 hours

 ConditionsComfort  
Time TempWeatherWind HumidityBarometerVisibility
8:00 PM
Sat, Mar 28
44 °FLight rain. Low clouds.7 mph93%29.73 "Hg2 mi
7:00 PM45 °FLight rain. Overcast.7 mph80%29.75 "Hg5 mi
6:00 PM45 °FLight rain. Overcast.6 mph77%29.79 "Hg6 mi
5:00 PM46 °FLight rain. Overcast.9 mph69%29.83 "Hg6 mi
3:00 PM48 °FOvercast.8 mph58%29.91 "Hg19 mi
2:00 PM47 °FOvercast.6 mph57%29.95 "Hg25 mi
1:00 PM48 °FPartly sunny.8 mph58%29.98 "Hg22 mi
12:00 PM45 °FPartly sunny.7 mph67%30.01 "Hg19 mi
11:00 AM44 °FOvercast.3 mph83%30.04 "Hg19 mi
9:00 AM44 °FPartly sunny.3 mph75%30.08 "Hg19 mi
8:00 AM42 °FPartly sunny.2 mph87%30.10 "Hg16 mi
7:00 AM38 °FPartly sunny.2 mph97%30.11 "Hg7 mi
6:00 AM39 °FFog.2 mph98%30.11 "Hg2 mi
3:00 AM39 °FOvercast.2 mph96%30.11 "Hg7 mi
2:00 AM38 °FOvercast.2 mph96%30.11 "Hg7 mi
1:00 AM37 °FOvercast.3 mph97%30.11 "Hg7 mi
12:00 AM36 °FPassing clouds.3 mph95%30.10 "Hg9 mi
11:00 PM
Fri, Mar 27
38 °FClear.3 mph91%30.08 "Hg12 mi
9:00 PM41 °FFog.3 mph90%30.05 "Hg2 mi
8:00 PM42 °FOvercast.3 mph85%30.01 "Hg2 mi
Weather by CustomWeather, © 2015

See weather overviewHow to use our weather pages